TIMESTAMP,CO2_1_1_1,H2O_1_1_1,TAU_1_1_1,TAU_SSITC_TEST_1_1_1,H_1_1_1,H_SSITC_TEST_1_1_1,LE_1_1_1,LE_SSITC_TEST_1_1_1,FC_1_1_1,FC_SSITC_TEST_1_1_1,WD_0_0_1,WS_0_0_1,WS_MAX_0_0_1,U_SIGMA_0_0_1,V_SIGMA_0_0_1,W_SIGMA_0_0_1,USTAR_0_0_1,MO_LENGTH_0_0_1,ZL_0_0_1,FETCH_MAX_0_0_1,FETCH_70_0_0_1,FETCH_80_0_0_1,FETCH_90_0_0_1,PA_0_0_1,RH_0_0_1,TA_0_0_1,VPD_0_0_1,T_SONIC_0_0_1,T_SONIC_SIGMA_0_0_1
[yyyymmddHHMMSS],[mmolCO2 mol-1],[mmolH2O mol-1],[kg m-1 s-2],[#],[W m-2],[#],[W m-2],[#],[umolCO2 m-2 s-1],[#],[Decimal degrees],[m s-1],[m s-1],[m s-1],[m s-1],[m s-1],[m s-1],[m],[#],[m],[m],[m],[m],[kPa],[%],[deg C],[hPa],[deg C],[deg C]
20240116003000,422.42523910476757,1.2903787301454468,1.1426030240784866,0,-47.677472752205126,0,2.6890475611419919,1,2.7324380995055368,0,219.58045951226114,4.5568356391364233,10.857817243765361,1.7787698373183110,1.5312916492384916,1.1295197302695634,0.94178417994014185,1458.6846218566475,1.3025433815718411E-002,108.26820967193404,197.94881765471624,236.89417789922922,296.56339984405912,93.924250824196818,90.977654332524025,-19.268664744325577,0.12022537527622930,-19.016345106028041,0.13927584534943921
20240116010000,422.61402776695536,1.2751994113872922,1.4464883148551091,0,-55.070083846826151,0,1.0888095235454140,1,3.0818380138834520,0,223.99330458919653,4.4756051192482786,13.673914634225930,2.0400365464524244,1.5133225106698833,1.1942813325282511,1.0587081538435033,1794.4789754546407,1.0588031545583448E-002,113.70788743591163,207.89428350350769,248.79636041281179,311.46351998670804,93.956439163194446,92.769659868737449,-19.629985668606196,9.3405811025270541E-002,-19.398506713443254,0.13204286875106785
20240116013000,422.53063772127445,1.2508488637315063,1.2275804304684983,0,-51.194306111108638,0,0.91410705045824991,0,2.8856392159875188,0,232.25324652190281,4.6289846358508289,13.425128488326006,1.9678386482406600,1.3664409426143400,1.0675295261097495,0.97456307374186901,1505.7234787459938,1.2618518783956069E-002,116.41232008205108,212.83884891520390,254.71374235098489,318.87137999121580,93.960574320312503,93.994970017152312,-20.005948742336614,7.5106503924410511E-002,-19.790841611226426,0.15704349839296838
20240116020000,422.77499209511109,1.2529344053704026,0.75152188765141903,0,-41.906905482707728,0,3.2533881682910132E-002,2,1.7921520054047284,0,228.68964507210279,3.7850486649301520,9.9094734426313220,1.5840595016013084,1.2329464573866542,0.89628391156044418,0.76183983785013598,878.66462564794233,2.1623722459509595E-002,109.94851354012957,201.02094903120997,240.57073452359037,301.16601246167926,93.954790283623666,98.068012038065859,-20.478403120829853,2.3197478782508513E-002,-20.249104977358797,0.15668859367438850
20240116023000,422.97757972737691,1.2403094811645194,0.55366068767552012,0,-28.211419788727440,0,0.42367963671139847,1,1.2032719231162914,0,224.48846552604448,3.1825408658106453,9.8253939034643487,1.3724383381122238,1.0543860327697971,0.81914141572063848,0.65339804675631852,823.37264754102875,2.3075821205310598E-002,104.49850031219779,191.05658665798308,228.64593769649827,286.23758188202851,93.946099272352427,100.00000000000000,-20.892216042412628,0.0000000000000000,-20.632312815348229,0.13788820439432187
20240116030000,423.09010316280882,1.2352304816263910,0.52159758915259680,0,-34.379137404120790,0,-6.6535696441036019E-002,2,1.2035526571005217,0,220.19454700627455,3.3199407092939759,8.6304137528158638,1.4330898031448083,0.98349397709279329,0.75670262239115171,0.63367319796135557,616.39256776421075,3.0824511834912468E-002,108.64430831998295,198.63644593386121,237.71709332665273,297.59359230849640,93.967021805989589,100.00000000000000,-21.251694375779891,0.0000000000000000,-20.992061496734550,0.13185827477576609
20240116033000,422.34337504845018,1.2214842424166719,0.42563686154218583,0,-31.893759077280556,1,-0.79495639282571218,1,1.5595132292825947E-002,2,223.04845270140754,3.2590238086585801,8.5555919134039051,1.3352824584262595,1.1200744410508512,0.77771561458447758,0.57184797336385995,488.65415699016671,3.8882305058099281E-002,97.909022338031278,179.00891931499766,214.22795690411883,268.18798082980987,94.061084243706603,100.00000000000000,-21.504677904764776,0.0000000000000000,-21.273508185068749,0.12855378215754965
20240116040000,421.92374032015874,1.2107157804952009,0.61389500269884456,0,-30.699387664830748,0,0.17596025001613555,0,1.7965809469944780,0,227.15704272012789,3.6421547009815165,10.455914333463539,1.6131155476647403,1.2374004810230570,0.87396600972965499,0.68658284874857756,878.68906779008216,2.1623120961075937E-002,103.23182998627189,188.74070931841030,225.87442400435535,282.76797561924434,94.067546914930546,100.00000000000000,-21.619687126159647,0.0000000000000000,-21.473448986901133,9.1634633094635640E-002
20240116043000,421.67941673094140,1.1959400964686748,0.73817994340543902,0,-28.101430140882179,0,0.61731037958005774,0,1.9628312862397588,0,228.58798369971805,4.0523534784552693,11.104313697795599,1.6423007367308653,1.3088091820549617,0.96754245697953789,0.75275099565077419,1264.8227066856109,1.5021868203005554E-002,102.43301255527308,187.28021628479195,224.12658685823976,280.57989091820849,94.042983647352429,100.00000000000000,-21.771591207716199,0.0000000000000000,-21.617818786197233,0.10468017833005783
20240116050000,421.68836288434971,1.1837274299259006,0.83240897018887428,0,-35.225255996071972,0,0.41509128137956564,0,1.8638232421121990,0,229.70539129135108,3.3477438436508820,10.667298445326105,1.4556809482931776,1.2134071264890913,0.90440626355108034,0.79900751163302475,1206.5819726378063,1.5746961607973113E-002,113.39782909661315,207.32739797123472,248.11794321526619,310.61422215929423,94.029415308722903,100.00000000000000,-22.023899856147636,0.0000000000000000,-21.898913137526506,0.11396253235775280
20240116053000,421.82160016340890,1.1900231780007684,0.74099461642105358,0,-18.558821309123889,0,0.10180313005545331,2,1.5525232886182083,0,225.40666719466282,3.4275699148903080,9.4006145736935789,1.6235046944237814,1.2062962061567231,0.90236380872736344,0.75397192357995668,1923.8082039407977,9.8762443995610988E-003,108.45103573835647,198.28308201351962,237.29420696440840,297.06418876448777,93.995408644097225,100.00000000000000,-22.039978652530237,0.0000000000000000,-22.113030970255522,6.0519533517759322E-002
20240116060000,421.72159782629194,1.1722313737155932,0.73824314693145354,0,-12.365643726250706,0,0.88122248666051251,0,1.7079334905497456,0,228.82748207902725,3.3356545445146200,9.6129489221092879,1.6331939268333682,1.1943458176289894,0.92904244974949290,0.75265757994770466,2871.7059748468018,6.6162762366413930E-003,105.80456476561183,193.44448902671670,231.50364695309759,289.81509476317427,93.970829365451380,100.00000000000000,-22.046048063066252,0.0000000000000000,-22.188802535586859,4.3201845028353641E-002
20240116063000,421.85364882424778,1.1820302943349976,0.59166113033777079,0,-8.2139668609750380,0,1.2715450270698296,1,1.0771241971380592,0,228.05872954828527,3.1554629575306139,9.3374454421059951,1.4672498646994272,1.1211499124547062,0.80362952651558806,0.67401688545718064,3103.5730639550516,6.1219760606464569E-003,108.77943859471976,198.88350717367075,238.01276253038364,297.96373506618340,93.921614806423605,100.00000000000000,-22.020641131507034,0.0000000000000000,-22.230257026248466,3.8455931970774786E-002
20240116070000,421.98777043067082,1.1749596465773808,0.45166400060843559,0,-11.835213133918552,1,1.4875550464689415,1,1.2856391807492669,0,224.90840986023613,3.3279599326106775,8.2299772760838845,1.3443976899230816,1.0866034223693075,0.81050647273932308,0.58884230903805401,1435.9059953093970,1.3232063980557473E-002,96.972572202468697,177.29678980173702,212.17897516072509,265.62289882809966,93.892237671006953,100.00000000000000,-22.148214458041707,0.0000000000000000,-22.306986127217613,5.7152216913111897E-002
20240116073000,422.14551491091441,1.1513209982722306,0.94661914339250519,0,-4.7062384004631364,1,1.8343867455241394,1,2.3170754667079043,0,227.84270147670080,4.1116695250596473,10.799636297892519,1.8485817032354830,1.3680407115867412,1.0080754059322199,0.85215946885225990,10941.977730539586,1.7364319749043253E-003,109.46547944758775,200.13780865422117,239.51384104953436,299.84290724770318,93.863080600397922,100.00000000000000,-22.406469239101853,0.0000000000000000,-22.550116653056591,0.10160517435191328
20240116080000,422.39862933731638,1.1353793585019492,0.71246385911354870,0,-10.273161237039609,1,0.89213830657278725,0,1.5110019894109243,0,225.47056343154151,3.8183422925776638,10.356549080946133,1.5883283641569155,1.2386712790727825,0.92685292533062147,0.73884972270623139,3266.7328882164043,5.8162086249952828E-003,104.44583627555950,190.96030000267527,228.53070716204971,286.09332692665157,93.845947587022579,100.00000000000000,-22.749033225165448,0.0000000000000000,-22.832693571726423,9.7676020573758363E-002
20240116083000,422.67241111843322,1.1069470215614108,0.91149331919495580,0,-20.529861137392814,0,-0.63180754369010250,2,1.8943480355915958,0,229.91665359496244,3.8069444242781105,9.9847147492344526,1.7061903970248038,1.2871013164201790,1.0210718382103960,0.83520772940623234,2361.1304350597115,8.0469929648420719E-003,106.62166620703616,194.93841106277895,233.29149007725218,292.05326220143291,93.838382937717014,100.00000000000000,-23.062610486772314,0.0000000000000000,-23.130488861931667,9.6948555110297166E-002
20240116090000,423.06188321735067,1.0786455169033600,1.3590345219600271,0,-8.8553384973049845,1,2.4177009780104601,1,2.3317485450624083,0,229.49015311253916,3.8378021303546475,10.874866336466441,1.8876002454251160,1.2572507460912370,1.0588574330826062,1.0192595095429460,9947.5167030457760,1.9100244379768162E-003,121.45425257609645,222.05710955621177,265.74564596165214,332.68201421846618,93.821718580946182,100.00000000000000,-23.390022260030037,0.0000000000000000,-23.480645020378915,0.15579974352804499
20240116093000,423.36790635381709,1.0625533427297773,1.1082842174591576,0,-13.435394233782640,0,0.82586482172471709,0,2.0105291071698415,0,225.00070900838128,3.4384548560058756,10.635213525455288,1.6704754348704609,1.4157888826392386,1.0125690552628914,0.91949620926432596,4813.2064960074331,3.9474724418660512E-003,115.91913549184557,211.93715019115072,253.63463927536077,317.52047099156363,93.812822188029600,100.00000000000000,-23.923631025567488,0.0000000000000000,-23.961571988886135,9.2036624418069604E-002
20240116100000,423.61817649311683,1.0617016518237445,0.83830011420958672,0,-8.8448023527108788,0,0.79642727947079783,0,1.8515300134433170,0,223.92534046504991,3.5732291495789825,10.721858795772263,1.7839355403152077,1.2492271772518366,0.92699271376234116,0.79972512141976704,4809.0488128313273,3.9508852456030183E-003,111.26189030198050,203.42222063190741,243.44444333630091,304.76355488849987,93.779570908203112,100.00000000000000,-23.992832834031844,0.0000000000000000,-24.125158142089788,5.8435992557638275E-002
20240116103000,423.72244082175575,1.0703982690359981,0.66480089594215275,0,-12.996674320957775,1,0.67841572276449857,1,1.8734133870397867,0,217.87154145790223,3.3228265360499245,8.5261818902529996,1.3566038758559722,1.2071729452951705,0.90999110836782726,0.71213615808594954,2310.2898348577096,8.2240763532469112E-003,102.91427302153150,188.16011390726555,225.17959958335217,281.89813789501363,93.744468914930565,100.00000000000000,-24.114136455535828,0.0000000000000000,-24.225272802564803,5.2523821006647355E-002
20240116110000,423.75258432432815,1.0774441368149847,0.63176795320098178,0,-10.381989117448409,0,0.23625025007797537,0,1.4277488408061145,0,216.59836669999555,3.2947403546371268,8.5943241899037552,1.4231731576925761,1.1739375077215219,0.85134402202950898,0.69413784011525659,2678.1063797569318,7.0945650791229822E-003,106.34752894005742,194.43720070714488,232.69166929246916,291.30235775620827,93.732731290592866,100.00000000000000,-24.203671707700209,0.0000000000000000,-24.306723347224249,4.4591566263246417E-002
20240116113000,423.83808408489165,1.0818517525695921,0.86671006849668497,0,-18.716946376870744,0,-9.6645243802333983E-002,2,1.5192434051028543,0,216.42627398988088,3.1064248126162721,8.5833436957486491,1.4991301435127782,1.1415568701435863,0.93088488821701842,0.81287610908820784,2385.0506426947827,7.9662878682242935E-003,112.34599717687910,205.40431375737595,245.81650257383885,307.73309157510857,93.698873928385410,100.00000000000000,-24.385084342108769,0.0000000000000000,-24.423617950015569,7.2239019864387910E-002
20240116120000,423.76014516606739,1.0862479080830298,0.86541854965543075,0,-18.135011615970022,0,-8.6546865180076440E-002,2,1.8048130411455410,0,216.34167319088067,3.2582850210477035,8.9246215064491032,1.4553668730116616,1.2291688790358921,0.95005485068529705,0.81204819418912799,2454.0849663965114,7.7421932248331665E-003,110.43872903866749,201.91721930875158,241.64334113518476,302.50878865926467,93.699533475477438,100.00000000000000,-24.519732376098602,0.0000000000000000,-24.514667644500719,5.9276566663847619E-002
20240116123000,423.74185198112298,1.0871005685276769,0.60257562673837473,0,-19.656048957087911,0,2.5074868772184140E-002,0,1.4058226890130956,0,219.87186587299172,3.1656892550074316,8.4996871403374534,1.3496584708383828,1.2132637018817776,0.86049531315167227,0.67758952490896107,1315.3914508196108,1.4444369383852419E-002,103.42593106759240,189.09558800042896,226.29912314945162,283.29964855227098,93.696243480251738,100.00000000000000,-24.537475374857593,0.0000000000000000,-24.504000322553850,6.1835176999774769E-002
20240116130000,423.68544848087032,1.0919911636713253,0.80829694510710737,0,-31.911731686707558,0,-0.21921989580851434,0,1.9013169243332870,0,218.21922754503325,3.3743373206464571,8.6606312584565881,1.4469388417869500,1.2446027596052462,0.95351584535655476,0.78472261804250665,1258.5235637618316,1.5097055428352426E-002,107.14341993289203,195.89234327845952,234.43310330173432,293.48242648973127,93.699778530060428,100.00000000000000,-24.563131701995928,0.0000000000000000,-24.483870854951419,7.5280379633428707E-002
20240116133000,423.68506428206786,1.0972173515098433,0.77599387649840545,0,-33.516489079222183,0,-0.26351447888687013,1,1.7861412051130570,0,218.06487414749154,3.4358945038389659,9.4266075185658948,1.5343444714733374,1.1719395193437734,0.90508122282558245,0.76886891396965762,1127.0025470087455,1.6858879379136452E-002,109.89721778641240,200.92716403347342,240.45849783432240,301.02550544520579,93.688583510416663,100.00000000000000,-24.601961530473488,0.0000000000000000,-24.491967209710026,8.8838706664752146E-002
20240116140000,423.76219469135759,1.0989991069546525,0.51898442875211126,0,-24.590632882108260,0,-0.10567763878581211,2,1.2501545720047287,0,209.89358936186420,2.9049098306398973,7.3410280938245318,1.2647785977001573,1.0579396088726527,0.83095179383982098,0.62877570252994364,840.05838261066003,2.2617475634197543E-002,100.18226283313599,183.16512795291928,219.20187713321326,274.41473872979026,93.678096684027778,100.00000000000000,-24.635177667829709,0.0000000000000000,-24.588180798000735,7.4918105084445824E-002
20240116143000,423.47806445114492,1.1093248553019837,0.53222752329115841,0,-9.3391303119685336,1,0.23805128275719076,2,0.69874310924663796,1,201.86764033847788,2.5732146180916105,7.7961114554277566,1.3026843682099061,0.93149836016934717,0.77020011611785422,0.63767449935774323,2307.5001620924845,8.2340189232188148E-003,107.65923162762512,196.83541156613396,235.56171517907913,294.89531463420957,93.695786756392764,100.00000000000000,-23.864969542154540,0.0000000000000000,-24.458087112665851,9.9759702243929396E-002
20240116150000,423.43353042395063,1.1163116412271590,0.54969075490329911,0,3.1948429911135703,1,0.57111457383099806,1,0.74587444573342288,0,211.41060743338036,3.2455451354219083,8.7893893783316681,1.3437031432419002,1.1498335197978307,0.82052118421328579,0.64939302341957694,-7123.6536305355667,-2.6671706662654724E-003,103.84585255600791,189.86333840834217,227.21792430153349,284.44987856576648,93.689108412112418,100.00000000000000,-22.850414647841944,0.0000000000000000,-24.010583434875400,0.16479917635577745
20240116153000,423.13789755099941,1.1295799474072776,0.65597061632915510,0,63.752687375872526,1,1.4805196761917701,1,0.94278124142154629,1,214.15262510509535,3.6413763499191312,11.439501852814605,1.6058784016446228,1.3837036585322522,0.92351771228826562,0.71079815777598443,-468.06793954033458,-4.0592397801607435E-002,101.55370003678019,185.67255255864296,222.20262398108440,278.17131770175035,93.670339709635414,99.887241374810458,-21.913730417039659,1.1947452195715869E-003,-23.369487959967728,0.23094560918320664
20240116160000,422.97223461805265,1.1471986716064762,1.1263251239357988,0,96.027396421647680,0,3.4967917865489153,1,1.2599941498544049,1,224.13520915410152,4.1930145514107959,10.006896125623738,1.8596011960860559,1.5817984054776273,1.1478748406929384,0.93254437140898749,-701.65318632312653,-2.7078905035072535E-002,106.04125873834737,193.87724109854804,232.02154065665835,290.46343622452986,93.651978936197921,96.518276092062834,-21.346743338690885,3.8766522662882184E-002,-22.718073824988437,0.22730365955371776
20240116163000,422.66829213294909,1.1489368956045856,1.1556695955822280,0,128.78867067082876,0,2.6217716162107845,1,2.9075893146067608,0,221.89285886930153,4.1641123563829163,11.869692721518634,2.0994564729345080,1.4704645721095988,1.1196015622049380,0.94591029551286820,-545.97797736676011,-3.4799938436412006E-002,109.41681408102001,200.04883284311276,239.40735972837683,299.70960526914718,93.649942990844480,91.065042425003142,-20.660923225173093,0.10559928390926474,-22.041589108672724,0.29256012213807531
20240116170000,422.55652497382357,1.1568321993998381,1.1844861946058136,0,142.26228913975723,0,6.4474942923309397,0,1.4030214209324858,0,219.90258265162703,3.8475504237673017,10.543469990153593,1.8824216727125833,1.4809710375296883,0.98509837839273839,0.95935540085008764,-515.60705479671287,-3.6849767324248661E-002,122.58994108920490,224.13351036744766,268.23056741253458,335.79284100346467,93.639648499576325,84.958553828754575,-19.779304413080837,0.19183555594354787,-21.392854521129721,0.32889494571373884
20240116173000,422.40456804682509,1.1808885882814681,0.86592539103672528,0,155.19858548651990,0,7.2858802975226817,1,-0.78687155786618190,2,209.35680121052721,3.6550815442635467,10.091840123593903,1.7496485762930383,1.3566208088851031,0.99835666209661822,0.82087253678756755,-295.98753069260130,-6.4191893339359971E-002,107.06484791082521,195.74868856286020,234.26118529708825,293.26720554844695,93.598011275173604,84.773837366202557,-19.519656868828548,0.19857320621973784,-20.887604811350428,0.34175494148130958
20240116180000,422.14906110318350,1.1959890784401745,1.0201925331099877,0,126.32033536541680,0,6.4465058707327918,0,0.37989891944843313,2,208.62014042335892,3.3114285595546482,10.549403571087376,1.7610693594627369,1.4227979994226685,0.98218945857469953,0.89324826934333434,-468.36981667290650,-4.0566234893118558E-002,116.05836060052397,212.19169809338578,253.93926810189478,317.90183013381261,93.540485869957777,77.945023941995430,-18.394847157462692,0.31663688932239253,-20.103350641950271,0.29497568387856510
20240116183000,422.13512644584387,1.2246225252384704,0.64407210642394130,0,130.85802175739298,0,6.4340282751425315,0,1.3548837689549074,0,209.40928170199049,3.2157919851161734,9.0901131875375416,1.5389163921768525,1.6151950026953306,1.0057019460295453,0.70974217903559389,-226.72417489238165,-8.3802267707087971E-002,94.745798404564638,173.22553710609117,207.30672549648435,259.52342041064799,93.494937300781260,80.618994206074760,-18.519009300231914,0.27532506672283957,-19.799026011996830,0.30601819046941670
20240116190000,421.87567885973351,1.2556713172055101,0.73302039895724458,0,140.78597749679932,0,8.4132600571288751,1,0.45091470163741459,2,211.74132925816158,3.5364680758015732,9.0393338743012706,1.7244425624720707,1.2865544621930256,0.96627556271782633,0.75843129031672640,-257.05542468572872,-7.3914020772870501E-002,103.15899359169489,188.60754115914696,225.71505572933958,282.56846545025212,93.446136670138898,77.758127688511905,-17.803976622687429,0.33572165293072120,-19.171826300726934,0.32842311506767319
20240116193000,422.11293918332478,1.2965896171764262,0.68761540456581471,0,107.57239131146495,0,5.5415660697576490,0,0.57083942289606426,0,192.50949212535699,3.3343693425406657,9.2793008609735619,1.6023363292098154,1.4538471160345021,0.98346606361075717,0.73518952552576988,-306.32483460462311,-6.2025659866995479E-002,99.212603379046030,181.39228121382166,217.08023237788851,271.75869125964908,93.399285588107631,78.236077698154602,-17.502718112521706,0.33697111161812177,-18.729703719245009,0.26999759146665764
20240116200000,422.19698554306120,1.3171216689323653,0.71501831076823985,0,94.546049032224644,0,5.6645055202046928,0,0.79024449722203061,0,193.00115782380888,3.9208212019606918,11.231351245656716,1.7789830139092258,1.5323614344769774,1.0383755622640944,0.74961868646144980,-369.33546365453412,-5.1443746592859163E-002,96.481413211390930,176.39879451892102,211.10430415838979,264.27753825827614,93.356215335069450,80.602914479457453,-17.675175710042311,0.29598612029103449,-18.644402220408097,0.20546563697635559
20240116203000,422.01700895209268,1.3368123235403362,1.1178032310371644,0,78.882917219878280,0,7.1585765864275093,0,1.8428313738304132,0,208.34508383337800,4.4118733485630415,11.542164562408246,2.0641043913819903,1.4615896779339579,1.0802509259482063,0.93736849473890738,-865.59202671936418,-2.1950294611667025E-002,111.77983498034995,204.36918869394935,244.57772224754734,306.18228560561266,93.362404792751747,81.338200266977637,-17.606189382764995,0.28642961228910024,-18.445467425452307,0.17759476382307590
20240116210000,421.98577354026048,1.3503159426996481,1.1119379435691485,0,59.860700593482882,0,6.6927749377615040,0,1.7282560971653280,0,208.35227233834155,4.0939857559321107,10.598020474047958,2.0021713926135818,1.4528499565744795,1.0925220893040568,0.93443905230556645,-1130.1241277922597,-1.6812312499793470E-002,110.49725842921710,202.02422970166796,241.77140524466995,302.66910972770006,93.377237673177078,83.685819349583412,-17.822139401753731,0.24587042463428518,-18.466858484480099,0.12955394380452376
20240116213000,422.05639634931316,1.3533713788268746,0.85440431501142267,0,36.038157409226315,0,3.5922044327275238,0,1.8939976983582489,0,208.65302056807928,4.6624339533593941,10.157738390826088,1.7113939959874860,1.4703429454790615,1.0484047496390854,0.81880208458979165,-1262.9129570415867,-1.5044583947026799E-002,102.74835267160800,187.85675859002393,224.81656074664306,281.44365635120931,93.372497343446099,85.341784327160923,-18.027540776198975,0.21710600213471920,-18.437831894561043,9.0465390196728848E-002
20240116220000,422.10917047252065,1.3656971575518404,1.0735931674472863,0,18.232767952312770,0,5.0523655964439547,1,2.1265436088395480,0,200.86688506466325,4.4907262600745694,11.123162849246846,1.9055795338857753,1.5842940166877639,1.1362163266954683,0.91717563723293694,-3508.3817777541462,-5.4156021788947526E-003,105.49893791400460,192.88570566729382,230.83492598712974,288.97793546709909,93.373222251953123,88.855403726209730,-18.396080735948317,0.15998295964228790,-18.641253857506626,9.8766369651344887E-002
20240116223000,422.20340737177315,1.3440560043358336,1.2562379945480096,0,-16.177856582232256,0,1.9254650617772195,0,2.1568705611126591,0,208.97657793400961,3.9941766845465336,11.250264708101570,1.9665259986595647,1.3757454468579013,1.0975842121372066,0.99123532380792190,4991.6029706769723,3.8063924778502923E-003,115.41068928677464,211.00754836768112,252.52214331628625,316.12775806437526,93.382481944444450,90.732992689109480,-18.828058211432563,0.12822524193184279,-18.865295691596145,7.6632414994193473E-002